Meteo Giornale » Osservazioni meteo Stati Uniti (USA) » Quillayute State
ore: 17:53 - Osservazioni Meteo Quillayute State
Lat. 47° 56' N Lon. 124° 33' W Alt. 59 metri s.l.m.
22 °C
Sereno
Temp. 24 Ore
10 °C
23 °C
Nord
13 Km/h
Dew point 13 °C
Umidità 56 %
Visibilità 10 Km
Il sole sorge alle ore 06:35
Il sole tramonta alle ore 20:01
| Data e Ora | Cielo e Fenomeni | T °C | DP °C | Um. % | Pres. hPa | Vis. km | Vento km/h | |
|---|---|---|---|---|---|---|---|---|
| Oggi h: 17:53 | Sereno | 22 | 13 | 56 | 1009 | 10 | N 13 | |
| Oggi h: 16:53 | Sereno | 23 | 13 | 53 | 1009 | 10 | N 13 | |
| Oggi h: 15:53 | Sereno | 23 | 13 | 53 | 1009 | 10 | NO 13 | |
| Oggi h: 14:53 | Sereno | 23 | 14 | 56 | 1010 | 10 | NO 13 | |
| Oggi h: 13:53 | Sereno | 23 | 15 | 60 | 1010 | 10 | SO 13 | |
| Oggi h: 12:53 | Sereno | 22 | 13 | 56 | 1011 | 10 | N 7.4 | |
| Oggi h: 11:53 | Sereno | 20 | 13 | 64 | 1012 | 10 | N 0 | |
| Oggi h: 10:53 | Sereno | 18 | 13 | 72 | 1012 | 10 | N 0 | |
| Oggi h: 09:53 | Sereno | 16 | 13 | 82 | 1013 | 10 | N 0 | |
| Oggi h: 09:03 | Nuvoloso | 13 | 13 | 100 | 1013 | 10 | N 0 | |
| Oggi h: 08:53 | Molto Nuvoloso | 13 | 13 | 100 | 1013 | 10 | N 0 | |
| Oggi h: 08:18 | Foschia | 12 | 12 | 100 | 1014 | 5 | N 0 | |
| Oggi h: 08:14 | Foschia | 12 | 12 | 100 | 1014 | 2 | N 0 | |
| Oggi h: 07:53 | Nebbia | 12 | 12 | 100 | 1014 | 0 | N 0 | |
| Oggi h: 07:04 | Nebbia | 11 | 11 | 100 | 1014 | 2 | N 5.5 | |
| Oggi h: 06:53 | Nebbia | 11 | 11 | 100 | 1014 | 2 | N 0 | |
| Oggi h: 06:46 | Foschia | 11 | 11 | 100 | 1014 | 5 | N 0 | |
| Oggi h: 06:37 | Foschia | 11 | 11 | 100 | 1014 | 5 | N 0 | |
| Oggi h: 06:07 | Coperto | 11 | 11 | 100 | 1014 | 11 | N 0 | |
| Oggi h: 05:59 | Foschia | 11 | 11 | 100 | 1014 | 3 | N 0 | |
| Oggi h: 05:53 | Foschia | 11 | 11 | 100 | 1014 | 2 | N 0 | |
| Oggi h: 05:44 | Nebbia | 10 | 10 | 100 | 1014 | 2 | N 0 | |
| Oggi h: 05:13 | Nebbia | 10 | 10 | 100 | 1014 | 2 | N 0 | |
| Oggi h: 05:10 | Nebbia | 10 | 10 | 100 | 1014 | 2 | N 0 | |
| Oggi h: 04:53 | Nebbia | 11 | 11 | 100 | 1015 | 2 | N 0 | |
| Oggi h: 04:21 | Foschia | 11 | 11 | 100 | 1015 | 5 | N 0 | |
| Oggi h: 04:14 | Foschia | 11 | 11 | 100 | 1015 | 2 | N 5.5 | |
| Oggi h: 04:00 | Nebbia | 12 | 12 | 100 | 1015 | 2 | N 0 | |
| Oggi h: 03:53 | Foschia | 12 | 12 | 100 | 1015 | 2 | N 0 | |
| Oggi h: 03:49 | Foschia | 12 | 11 | 93 | 1015 | 5 | N 0 | |
| Oggi h: 03:36 | Molto Nuvoloso | 11 | 11 | 100 | 1015 | 10 | N 0 | |
| Oggi h: 03:26 | Nuvoloso | 11 | 11 | 100 | 1015 | 10 | N 0 | |
| Oggi h: 02:53 | Sereno | 12 | 12 | 100 | 1015 | 10 | N 0 | |
| Oggi h: 01:53 | Sereno | 13 | 12 | 93 | 1016 | 10 | N 0 | |
| Oggi h: 01:36 | Nuvoloso | 13 | 13 | 100 | 1016 | 10 | N 7.4 | |
| Oggi h: 00:53 | Coperto | 14 | 13 | 93 | 1016 | 10 | N 0 | |
| Oggi h: 00:19 | Coperto | 14 | 13 | 93 | 1017 | 10 | N 0 | |
| Ieri h: 23:53 | Coperto | 14 | 13 | 93 | 1017 | 10 | N 5.5 | |
| Ieri h: 22:53 | Coperto | 14 | 13 | 93 | 1018 | 10 | N 0 | |
| Ieri h: 22:25 | Molto Nuvoloso | 13 | 13 | 100 | 1018 | 10 | N 0 | |
| Ieri h: 21:53 | Sereno | 14 | 13 | 93 | 1018 | 10 | N 0 | |
| Ieri h: 21:09 | Nuvoloso | 14 | 13 | 93 | 1018 | 10 | NO 7.4 | |
| Ieri h: 20:53 | Molto Nuvoloso | 14 | 13 | 93 | 1018 | 10 | N/NO 7.4 | |
| Ieri h: 20:26 | Coperto | 15 | 13 | 87 | 1018 | 10 | O/NO 7.4 | |
| Ieri h: 19:53 | Coperto | 15 | 13 | 87 | 1018 | 10 | N 5.5 | |
| Ieri h: 19:26 | Coperto | 15 | 13 | 87 | 1018 | 10 | O/NO 7.4 | |
| Ieri h: 18:53 | Coperto | 16 | 13 | 82 | 1018 | 10 | O/NO 9.3 | |



